Back to catalog

FLOCK 4H 34

AliveScienceSSO
NORAD 66737·PAYLOAD·🇺🇸 United States

Launched Nov 28, 2025 from Vandenberg Space Force Base

Loading…

Next Passes (next 24 hours)

TLE

FreshSource: CelesTrak SupGP

Epoch: Sep 14, 2026, 06:45 UTC

1 66737C 25276BZ  26257.28140046  .00003939  00000+0  17564-3 0  2574
2 66737  97.4164 329.7946 0002580  36.7630  68.7342 15.21475999    15

Track FLOCK 4H 34 in real time with AllMySat

Download on the App Store